Location: Coopersdale
(40.3556°N, 78.9372°W)
Time: 08:14:02
(UTC+00:00)

Tiros 1 - Pass Details

Date: 21 January 2021
Orbit: 630 x 664 km, 48.4° (Epoch: 05 March)

Event Time Altitude Azimuth Distance (km) Brightness Sun altitude
Rises 00:23:34 0° 236° (SW) 2,918 11.5 -23.3°
Reaches altitude 10° 00:25:53 10° 236° (SW) 2,008 10.5 -23.7°
Enters shadow 00:30:23 83° 189° (S) 639 7.0 -24.6°
